Weather History for New Philadelphia, OH

Change the Weather History Date:

Monday, February 18, 2013

  Actual Average Record
Temperature  
Mean Temperature 30 °F 32 °F  
Max Temperature 49 °F 42 °F 62 °F (1961)
Min Temperature 11 °F 22 °F -8 °F (1979)
Degree Days  
Heating Degree Days 35 33  
Month to date heating degree days 658 617  
Since 1 July heating degree days 3803 3889  
Cooling Degree Days 0 0  
Month to date cooling degree days 0 0  
Year to date cooling degree days 0 0  
Moisture  
Dew Point 17 °F    
Average Humidity 60    
Maximum Humidity 84    
Minimum Humidity 36    
Precipitation  
Precipitation 0.00 in 0.09 in 1.00 in (1976)
Month to date precipitation 0.35 1.47  
Year to date precipitation 1.85 4.07  
Sea Level Pressure  
Sea Level Pressure 30.13 in    
Wind  
Wind Speed 7 mph (SE)    
Max Wind Speed 16 mph    
Max Gust Speed 24 mph    
Visibility 10 miles    
Events      
T = Trace of Precipitation, MM = Missing Value Source: NWS Daily Summary

Daily Weather History Graph

Daily Weather History Graph

Search for Another Location

Airport:

Trip Planner

Search our weather history database for the weather conditions in past years. The results will help you decide how hot, cold, wet, or windy it might be!

Date:

Astronomy

Feb. 18, 2013 Rise Set
Actual Time 7:14 AM EST 6:04 PM EST
Civil Twilight 6:47 AM EST 6:32 PM EST
Nautical Twilight 6:15 AM EST 7:04 PM EST
Astronomical Twilight 5:43 AM EST 7:36 PM EST
Moon 11:49 AM EST (2/18) 1:54 AM EST (2/18)
Length of Visible Light 11h 45m
Length of Day
10h 49m
First Quarter, 58% of the Moon is Illuminated
Feb 18
First Quarter
Feb 25
Full
Mar 4
Last Quarter
Mar 11
New
Mar 19
First Quarter

Hourly Weather History & Observations

Time (EST) Temp. Windchill Dew Point Humidity Pressure Visibility Wind Dir Wind Speed Gust Speed Precip Events Conditions
12:53 AM 14.0 °F - 8.1 °F 77% 30.31 in 10.0 mi Calm Calm - N/A   Clear
1:53 AM 12.9 °F - 8.1 °F 81% 30.31 in 10.0 mi Calm Calm - N/A   Clear
2:53 AM 12.9 °F 6.9 °F 7.0 °F 77% 30.31 in 10.0 mi ESE 3.5 mph - N/A   Clear
4:53 AM 12.0 °F 4.1 °F 7.0 °F 80% 30.30 in 10.0 mi SE 4.6 mph - N/A   Clear
5:53 AM 10.9 °F 2.9 °F 7.0 °F 84% 30.31 in 10.0 mi SE 4.6 mph - N/A   Clear
6:53 AM 12.0 °F 4.1 °F 7.0 °F 80% 30.31 in 10.0 mi SSE 4.6 mph - N/A   Clear
7:53 AM 14.0 °F 5.1 °F 7.0 °F 74% 30.29 in 10.0 mi SE 5.8 mph - N/A   Clear
8:53 AM 18.0 °F 6.9 °F 8.1 °F 65% 30.30 in 10.0 mi SE 9.2 mph - N/A   Overcast
9:53 AM 21.9 °F 12.5 °F 10.9 °F 63% 30.25 in 10.0 mi SE 8.1 mph - N/A   Mostly Cloudy
10:53 AM 28.0 °F 18.6 °F 12.0 °F 51% 30.22 in 10.0 mi SE 10.4 mph - N/A   Clear
11:53 AM 33.1 °F 24.4 °F 12.9 °F 43% 30.19 in 10.0 mi SE 11.5 mph - N/A   Clear
12:53 PM 37.9 °F 30.0 °F 16.0 °F 41% 30.13 in 10.0 mi SE 12.7 mph - N/A   Clear
1:53 PM 42.1 °F 35.7 °F 18.0 °F 38% 30.08 in 10.0 mi SE 11.5 mph 20.7 mph N/A   Clear
2:53 PM 44.1 °F 38.6 °F 19.9 °F 38% 30.06 in 10.0 mi SSE 10.4 mph 16.1 mph N/A   Mostly Cloudy
3:53 PM 46.0 °F 41.9 °F 21.9 °F 39% 30.05 in 10.0 mi SSE 8.1 mph - N/A   Clear
4:53 PM 46.9 °F - 24.1 °F 41% 30.02 in 10.0 mi SSE 10.4 mph - N/A   Clear
5:53 PM 46.0 °F 42.5 °F 25.0 °F 44% 30.01 in 10.0 mi SSE 6.9 mph - N/A   Clear
6:53 PM 42.1 °F 36.6 °F 25.0 °F 51% 29.98 in 10.0 mi SE 9.2 mph - N/A   Clear
7:53 PM 41.0 °F 35.8 °F 25.0 °F 53% 29.96 in 10.0 mi SE 8.1 mph - N/A   Clear
8:53 PM 42.1 °F 37.7 °F 26.1 °F 53% 29.93 in 10.0 mi SSE 6.9 mph - N/A   Clear
9:53 PM 46.9 °F - 28.0 °F 48% 29.89 in 10.0 mi South 12.7 mph 21.9 mph N/A   Scattered Clouds
10:53 PM 48.9 °F - 28.0 °F 44% 29.86 in 10.0 mi South 9.2 mph 23.0 mph N/A   Mostly Cloudy
11:53 PM 48.0 °F - 28.0 °F 46% 29.83 in 10.0 mi SSE 10.4 mph - N/A   Clear